Probability
6 6 6 7 5 3 3 5 5 3 4 8 11 12 13 11 7 8 9 5 1 0 0 0 0 0 0 0 0 0 0 0 0 0 0 1 2 4
8 8 9 8 7 7 7 7 8 6 5 8 10 12 12 10 8 11 12 6 1 0 0 0 0 0 0 0 0 0 0 0 0 0 0 0 1 1
8 9 10 10 11 13 13 13 13 9 6 5 7 10 13 12 10 13 12 6 2 1 0 0 0 0 0 0 0 0 0 0 0 0 0 0 0 0
8 9 11 12 14 17 17 16 15 11 5 3 5 8 12 13 13 11 9 6 3 1 0 0 0 0 0 0 0 0 0 0 0 0 0 0 0 0
9 9 12 14 16 18 19 18 14 10 6 4 4 6 9 11 13 11 8 7 4 1 0 0 0 0 0 0 0 0 0 0 0 0 0 0 0 0
11 11 11 12 14 16 19 19 16 10 7 5 4 4 6 9 11 10 8 7 4 2 1 1 0 0 0 0 0 0 0 0 0 0 0 0 0 0
15 13 9 7 7 9 12 15 14 11 9 7 6 5 6 8 9 8 7 4 3 2 2 1 0 0 0 0 0 0 0 0 0 0 0 0 0 0
17 14 8 4 3 3 4 5 6 7 7 8 8 6 5 6 8 7 5 3 2 1 1 1 0 0 0 0 0 0 0 0 0 0 0 0 0 0
16 14 10 6 5 5 3 2 2 3 4 5 6 7 6 6 8 7 5 3 1 1 1 0 0 0 0 0 0 0 0 0 0 0 0 0 0 0
16 15 13 10 7 6 6 6 6 5 3 2 4 5 6 5 6 5 4 2 1 1 1 0 0 0 0 0 0 0 0 0 0 0 0 0 0 0
16 15 13 9 5 4 6 9 9 7 3 1 2 2 2 2 2 2 1 0 0 0 0 0 0 0 0 0 0 0 0 0 0 0 0 0 0 0
14 12 9 5 2 1 3 7 8 6 3 1 1 0 0 0 1 1 1 0 0 0 0 0 0 0 0 0 0 0 0 0 0 0 0 0 0 0
10 8 5 1 0 0 1 3 4 4 4 3 1 0 0 0 0 0 0 0 0 0 0 0 0 0 0 0 0 0 0 0 0 0 0 0 0 0
7 6 2 0 0 0 0 1 1 2 4 3 1 0 0 0 0 0 0 0 0 0 0 0 0 0 0 0 0 0 0 0 0 0 0 0 0 0
5 3 1 0 0 0 0 0 0 1 2 1 1 0 0 0 0 0 0 0 0 0 0 0 0 0 0 0 0 0 0 0 0 0 0 0 0 0
1 1 0 0 0 0 0 0 0 0 0 0 0 0 0 0 0 0 0 0 0 0 0 0 0 0 0 0 0 0 0 0 0 0 0 0 0 0
1 1 1 1 0 0 0 0 0 0 0 0 0 0 0 0 0 0 0 0 0 0 0 0 0 0 0 0 0 0 0 0 0 0 0 0 0 0
0 1 2 2 1 0 0 0 0 0 0 0 0 0 0 0 0 0 0 0 0 0 0 0 0 0 0 0 0 0 0 0 0 0 0 0 0 0
0 0 1 2 1 0 0 0 0 0 0 0 0 0 0 0 0 0 0 0 0 0 0 0 0 0 0 0 0 0 0 0 0 0 0 0 0 0
0 0 0 1 1 0 0 0 0 0 0 0 0 0 0 0 0 0 0 0 0 0 0 0 0 0 0 0 0 0 0 0 0 0 0 0 0 0
0 0 0 0 0 0 0 0 0 0 0 0 0 0 0 0 0 0 0 0 0 0 0 0 0 0 0 0 0 0 0 0 0 0 0 0 0 0
0 0 0 0 0 0 0 0 0 0 0 0 0 0 0 0 0 0 0 0 0 0 0 0 0 0 0 0 0 0 0 0 0 0 0 0 0 0
0 0 0 0 0 0 0 0 0 0 0 0 0 0 0 0 0 0 0 0 0 0 0 0 0 0 0 0 0 0 0 0 0 0 0 0 0 0
Wind_Speed
4 4 3 3 3 2 2 3 3 3 2 2 2 3 4 4 6 5 5 9 11 10 10 10 10 11 10 10 10 9 9 8 8 8 8 8 7 7
3 3 3 3 2 2 3 2 2 3 3 2 2 3 4 6 7 5 6 11 11 11 10 10 10 10 10 10 10 9 9 8 8 8 8 7 7 7
4 4 4 3 3 2 2 2 2 2 3 2 2 3 4 6 5 5 6 6 6 10 11 11 10 10 10 9 9 8 8 8 8 7 7 7 7 7
4 3 3 3 3 3 2 3 2 2 4 5 3 3 4 5 6 5 6 6 5 9 11 11 10 10 9 9 8 8 7 7 7 6 7 7 6 6
3 3 3 3 3 3 3 3 2 3 3 5 4 3 3 4 5 5 5 4 6 8 9 10 10 10 9 9 8 7 7 6 6 6 6 6 5 5
1 2 2 3 3 3 3 3 2 3 4 4 4 4 4 4 5 5 4 3 4 5 6 7 9 9 9 8 8 7 7 6 6 6 5 5 5 4
1 1 1 1 0 1 2 2 3 3 4 5 5 4 4 5 5 4 5 4 3 3 3 4 5 4 5 6 7 7 6 6 5 5 4 3 3 2
1 1 1 1 2 3 4 3 3 4 4 4 4 6 6 5 5 5 5 5 3 3 3 3 4 4 3 3 7 8 7 6 5 4 3 2 2 2
1 1 1 1 2 3 4 4 3 2 3 3 4 5 6 6 6 6 5 3 3 4 4 3 3 3 3 5 10 9 8 7 6 5 4 4 4 4
1 1 1 1 1 3 4 4 4 3 2 2 3 3 4 4 5 5 6 4 3 2 3 3 3 3 4 4 9 9 8 7 7 6 6 6 5 5
1 2 2 3 5 4 4 4 4 3 7 8 7 7 8 8 6 5 5 5 3 3 2 2 3 3 3 3 6 10 9 8 8 8 7 7 6 6
2 3 5 4 4 4 3 4 4 3 4 5 6 6 6 7 6 4 4 5 4 3 3 2 2 3 3 3 4 5 6 7 9 9 8 8 6 3
2 2 3 5 4 3 2 3 5 4 4 5 5 5 4 3 3 3 2 3 3 2 4 3 2 2 2 2 3 4 5 5 5 5 8 9 8 5
2 2 3 4 4 3 3 4 5 5 4 4 4 4 4 4 4 4 3 3 2 3 4 3 2 2 2 2 2 3 4 4 4 4 4 6 8 8
3 5 5 5 5 4 4 4 3 2 3 4 4 3 3 4 4 3 3 3 3 3 3 2 2 2 1 2 2 2 3 3 3 3 3 3 3 4
4 5 5 4 3 4 3 2 1 1 3 3 4 4 4 4 4 4 4 4 3 2 2 2 2 2 1 0 1 2 2 2 3 2 2 2 3 4
4 3 3 2 2 2 2 2 2 2 2 2 3 4 4 4 4 3 3 3 3 3 3 2 2 2 1 1 1 1 1 1 2 2 1 2 3 4
4 3 3 3 3 3 3 3 2 2 2 3 3 4 4 4 4 3 3 3 3 3 3 3 2 1 0 1 1 1 1 1 1 2 2 3 4 3
3 3 3 3 3 3 3 3 3 3 2 2 3 3 3 3 3 3 3 2 2 2 3 2 2 2 2 2 3 3 2 1 1 2 3 3 3 3
3 3 3 3 2 2 3 3 3 3 3 3 3 3 3 3 3 3 3 3 3 3 3 3 2 2 1 1 1 3 6 3 2 2 3 2 2 3
3 2 2 2 2 2 2 2 2 3 3 3 3 3 3 3 3 3 3 4 2 2 3 3 3 3 2 1 1 2 3 6 6 3 3 2 3 3
2 2 2 2 2 2 2 2 3 3 3 3 3 3 3 2 3 3 3 3 3 2 3 2 3 2 2 2 3 3 3 4 6 10 9 7 4 3
2 2 2 2 2 2 2 3 3 3 3 3 3 3 3 3 2 2 3 2 2 2 2 2 2 3 3 3 3 3 4 3 3 4 5 10 14 15
Wind_Direction
231 230 233 248 237 229 216 193 188 198 196 170 143 135 121 112 129 128 127 132 132 130 127 125 120 117 113 111 108 104 101 98 95 92 89 85 80 74
230 230 229 254 263 235 223 217 200 188 186 151 134 136 130 126 130 124 122 127 128 128 126 125 124 123 120 117 113 108 104 99 96 94 89 84 79 75
229 225 220 237 254 256 230 208 202 175 158 133 115 119 119 123 125 124 124 121 124 128 129 128 126 124 121 120 117 114 108 104 101 96 92 86 82 77
228 230 229 233 234 249 245 228 214 183 158 152 151 150 133 132 131 132 132 131 125 130 132 131 129 128 127 127 123 118 114 109 104 98 94 90 87 81
230 225 230 233 240 235 230 229 209 190 158 155 157 152 142 138 129 126 119 119 128 131 132 133 135 135 136 134 130 128 123 117 111 106 100 92 84 77
261 246 240 235 239 231 224 213 196 169 154 151 151 154 151 148 144 144 138 140 137 138 135 137 140 141 142 140 140 137 133 128 121 114 106 99 92 84
261 275 251 182 235 236 226 194 173 164 162 163 163 159 163 165 168 166 156 147 128 135 137 150 145 143 147 147 145 143 136 132 128 123 118 114 116 122
199 231 208 128 94 102 103 111 137 167 174 176 177 173 173 171 163 163 158 159 161 167 155 164 153 153 156 151 155 154 154 153 152 152 154 166 190 214
203 230 235 130 113 114 102 96 90 110 163 182 177 173 168 173 168 167 167 165 160 162 152 159 155 159 165 156 160 164 169 175 180 186 195 208 224 241
57 92 121 128 104 110 110 97 77 58 87 130 147 155 150 155 165 160 155 135 112 136 144 155 165 162 144 144 168 174 182 190 198 208 217 225 231 241
84 64 82 88 84 103 117 118 107 86 70 81 92 102 107 113 123 138 152 152 150 161 174 159 159 146 145 162 182 190 196 203 211 218 223 227 235 240
94 82 73 94 103 107 130 137 134 129 117 103 99 105 115 122 126 140 156 163 150 155 170 167 157 148 156 175 178 186 205 217 222 227 230 235 241 237
128 105 84 93 102 110 128 135 144 142 135 131 126 123 123 127 129 118 120 146 148 141 157 161 167 161 154 157 174 185 192 198 204 226 233 238 240 231
108 104 102 106 103 99 109 126 137 144 142 139 137 139 141 139 131 124 114 104 96 124 140 153 163 163 160 160 171 181 194 195 190 202 208 217 231 236
97 108 119 125 123 110 116 129 143 151 146 145 146 145 138 134 133 131 125 112 102 118 128 136 154 148 165 168 160 172 185 198 194 198 195 191 205 211
117 118 117 109 104 111 127 146 180 148 149 146 142 137 135 143 151 153 154 153 142 137 139 144 142 138 170 180 160 178 181 185 185 183 179 213 227 224
139 148 151 148 145 153 166 175 170 162 148 144 144 148 153 157 159 159 163 166 158 155 157 159 154 152 160 162 184 206 204 205 177 161 182 245 250 230
152 167 172 178 182 183 180 179 185 183 173 160 156 161 164 163 162 166 175 177 160 158 155 154 147 135 251 287 227 221 233 228 210 195 212 235 256 244
188 183 184 191 193 188 186 187 185 177 177 172 171 166 160 161 162 165 167 160 148 147 152 160 171 175 195 213 227 229 226 236 231 230 234 236 245 242
219 192 184 187 193 192 187 190 177 172 174 177 171 164 164 168 166 166 162 162 165 162 164 173 177 177 192 221 206 225 223 219 235 247 260 266 262 248
207 206 195 185 188 188 177 168 167 171 170 170 175 175 174 173 175 176 159 155 173 177 172 172 181 190 210 231 229 218 214 218 223 225 242 268 279 277
205 200 207 200 184 166 162 168 173 171 170 186 187 180 178 173 169 169 171 178 190 182 165 167 182 198 215 227 244 239 226 220 235 242 245 236 232 245
218 192 179 186 180 172 172 179 182 182 188 189 180 174 177 172 173 177 181 188 189 187 173 180 192 212 228 231 241 249 247 233 233 233 244 241 236 243